Windsor, Ontario

11:53 PM EST on February 21, 2017 (GMT -0500)
Windsor

Weather History for CYQG - April, 2014

Change the Weather History Date:

Wednesday, April 2, 2014

  Actual Average Record
Temperature  
Mean Temperature 45 °F -  
Max Temperature 55 °F 57 °F 68 °F (1999)
Min Temperature 35 °F 38 °F 25 °F (2013)
Degree Days  
Heating Degree Days 20    
Moisture  
Dew Point 27 °F    
Average Humidity 52    
Maximum Humidity 75    
Minimum Humidity 29    
Precipitation  
Precipitation 0.00 in 0.10 in - ()
Sea Level Pressure  
Sea Level Pressure 30.14 in    
Wind  
Wind Speed 8 mph ()    
Max Wind Speed 15 mph    
Max Gust Speed 21 mph    
Visibility 15.0 miles    
Events      
Averages and records for this station are not official NWS values.
T = Trace of Precipitation, MM = Missing Value Source: Averaged Metar Reports

Daily Weather History Graph

Daily Weather History Graph

Search for Another Location

Airport or City:

Trip Planner

Search our weather history database for the weather conditions in past years. The results will help you decide how hot, cold, wet, or windy it might be!

Date:

Astronomy

Apr. 02, 2014 Rise Set
Actual Time 7:12 AM EDT 7:58 PM EDT
Civil Twilight 6:44 AM EDT 8:27 PM EDT
Nautical Twilight 6:10 AM EDT 9:00 PM EDT
Astronomical Twilight 5:35 AM EDT 9:35 PM EDT
Moon 8:53 AM EDT (4/2) 11:24 PM EDT (4/2)
Length of Visible Light 13h 42m
Length of Day
12h 46m
Waxing Crescent, 10% of the Moon is Illuminated
Apr 2
Waxing Crescent
Apr 7
First Quarter
Apr 15
Full
Apr 22
Last Quarter
Apr 29
New

Hourly Weather History & Observations

Time (EDT) Temp. Windchill Dew Point Humidity Pressure Visibility Wind Dir Wind Speed Gust Speed Precip Events Conditions
12:00 AM 41.0 °F 33.1 °F 26.6 °F 57% 30.04 in 15.0 mi WNW 15.0 mph 20.7 mph N/A   Scattered Clouds
1:00 AM 41.0 °F 34.3 °F 26.6 °F 57% 30.06 in 15.0 mi West 11.5 mph 19.6 mph N/A   Scattered Clouds
2:00 AM 40 °F - 26 °F 46% 30.07 in 15 mi West 9.2 mph - -   Clear
2:00 AM 39.2 °F 33.0 °F 26.6 °F 61% 30.07 in 15.0 mi West 9.2 mph - N/A   Partly Cloudy
3:00 AM 39.2 °F 32.5 °F 26.6 °F 61% 30.08 in 15.0 mi West 10.4 mph - N/A   Scattered Clouds
4:00 AM 39.2 °F 33.0 °F 26.6 °F 61% 30.08 in 15.0 mi West 9.2 mph - N/A   Mostly Cloudy
5:00 AM 37.4 °F 32.8 °F 24.8 °F 60% 30.09 in 15.0 mi NW 5.8 mph - N/A   Mostly Cloudy
6:00 AM 35.6 °F 29.2 °F 24.8 °F 65% 30.11 in 15.0 mi NW 8.1 mph - N/A   Mostly Cloudy
7:00 AM 35.6 °F 32.8 °F 24.8 °F 65% 30.13 in 15.0 mi NW 3.5 mph - N/A   Overcast
9:00 AM 37.4 °F 31.4 °F 24.8 °F 60% 30.18 in 15.0 mi WNW 8.1 mph - N/A   Partly Cloudy
10:00 AM 41.0 °F 36.4 °F 24.8 °F 53% 30.17 in 15.0 mi West 6.9 mph - N/A   Partly Cloudy
11:00 AM 44.6 °F 40.2 °F 26.6 °F 49% 30.18 in 15.0 mi West 8.1 mph - N/A   Partly Cloudy
12:00 PM 46.4 °F 43.5 °F 26.6 °F 46% 30.18 in 15.0 mi WNW 5.8 mph - N/A   Mostly Cloudy
1:00 PM 48.2 °F - 28.4 °F 46% 30.17 in 15.0 mi WSW 5.8 mph - N/A   Mostly Cloudy
2:00 PM 49 °F - 27 °F 29% 30.17 in 15 mi West 4.6 mph - -   Clear
2:00 PM 50.0 °F - 26.6 °F 40% 30.17 in 15.0 mi Calm Calm - N/A   Scattered Clouds
3:00 PM 51.8 °F - 26.6 °F 38% 30.15 in 15.0 mi SW 3.5 mph - N/A   Partly Cloudy
4:00 PM 51.8 °F - 30.2 °F 44% 30.15 in 15.0 mi ENE 8.1 mph - N/A   Mostly Cloudy
5:00 PM 50.0 °F - 26.6 °F 40% 30.14 in 15.0 mi ENE 10.4 mph - N/A   Mostly Cloudy
6:00 PM 50.0 °F - 26.6 °F 40% 30.14 in 15.0 mi East 11.5 mph - N/A   Mostly Cloudy
7:00 PM 50.0 °F - 26.6 °F 40% 30.15 in 15.0 mi East 8.1 mph - N/A   Mostly Cloudy
8:00 PM 47 °F - 29 °F 36% 30.17 in 15 mi East 5.8 mph - -   Scattered Clouds
8:00 PM 46.4 °F 43.5 °F 28.4 °F 50% 30.17 in 15.0 mi East 5.8 mph - N/A   Mostly Cloudy
9:00 PM 44.6 °F 39.2 °F 32.0 °F 61% 30.19 in 15.0 mi ENE 10.4 mph - N/A   Mostly Cloudy
10:00 PM 39.2 °F 31.6 °F 32.0 °F 75% 30.20 in 15.0 mi NE 12.7 mph - N/A   Mostly Cloudy
11:00 PM 39.2 °F 31.6 °F 32.0 °F 75% 30.21 in 15.0 mi ENE 12.7 mph - N/A   Mostly Cloudy